| time (UTC) | temp C | wind direction | speed KPH | gust KPH | rain 1hr cm | rain 24hr cm | rain mn cm | humidity % | barometer mb |
| 20260507004104 | 15 | 220 | 3.2 | 6.4 | 0.00 | 0.00 | 0.00 | 80 | 1011.6 |
| 20260507003600 | 15 | 148 | 8.0 | 12.9 | 0.00 | 0.00 | 0.00 | 80 | 1011.6 |
| 20260507003055 | 15 | 194 | 4.8 | 9.7 | 0.00 | 0.00 | 0.00 | 79 | 1011.8 |
| 20260507002552 | 15 | 210 | 6.4 | 9.7 | 0.00 | 0.00 | 0.00 | 78 | 1011.7 |
| 20260507002048 | 15 | 235 | 9.7 | 16.1 | 0.00 | 0.00 | 0.00 | 78 | 1011.7 |
| 20260507001544 | 15 | 213 | 4.8 | 6.4 | 0.00 | 0.00 | 0.00 | 77 | 1011.8 |
| 20260507001042 | 15 | 198 | 6.4 | 9.7 | 0.00 | 0.00 | 0.00 | 77 | 1011.8 |
| 20260507000538 | 15 | 223 | 8.0 | 11.3 | 0.00 | 0.00 | 0.00 | 78 | 1011.8 |
| 20260507000033 | 15 | 223 | 9.7 | 11.3 | 0.00 | 0.00 | 0.00 | 78 | 1011.7 |
| 20260506235531 | 15 | 224 | 6.4 | 9.7 | 0.00 | 0.00 | 0.00 | 79 | 1011.8 |
| 20260506235027 | 15 | 170 | 9.7 | 12.9 | 0.00 | 0.00 | 0.00 | 79 | 1011.7 |
| 20260506234525 | 15 | 193 | 4.8 | 11.3 | 0.00 | 0.00 | 0.00 | 79 | 1012.2 |
| 20260506234022 | 15 | 165 | 14.5 | 17.7 | 0.00 | 0.00 | 0.00 | 79 | 1012.1 |
| 20260506233518 | 15 | 152 | 16.1 | 22.5 | 0.00 | 0.00 | 0.00 | 78 | 1012.1 |
| 20260506233015 | 15 | 134 | 14.5 | 22.5 | 0.00 | 0.00 | 0.00 | 78 | 1011.9 |
| 20260506232511 | 15 | 84 | 12.9 | 16.1 | 0.00 | 0.00 | 0.00 | 79 | 1012.3 |
| 20260506232007 | 15 | 139 | 6.4 | 6.4 | 0.00 | 0.00 | 0.00 | 79 | 1012.5 |
| 20260506231505 | 15 | 209 | 6.4 | 11.3 | 0.00 | 0.00 | 0.00 | 79 | 1012.2 |
| 20260506231002 | 15 | 194 | 9.7 | 14.5 | 0.00 | 0.00 | 0.00 | 79 | 1012.2 |
| 20260506230458 | 15 | 200 | 12.9 | 16.1 | 0.00 | 0.00 | 0.00 | 79 | 1012.2 |
| 20260506225955 | 15 | 171 | 8.0 | 17.7 | 0.00 | 0.99 | 0.99 | 78 | 1012.1 |
| 20260506225452 | 15 | 155 | 8.0 | 14.5 | 0.00 | 0.99 | 0.99 | 78 | 1012.2 |
| 20260506224949 | 15 | 226 | 4.8 | 11.3 | 0.00 | 0.99 | 0.99 | 78 | 1012.1 |
| 20260506224446 | 15 | 65 | 8.0 | 11.3 | 0.00 | 0.99 | 0.99 | 79 | 1012.2 |
| 20260506223942 | 15 | 155 | 8.0 | 16.1 | 0.00 | 0.99 | 0.99 | 80 | 1012.1 |
| 20260506223438 | 15 | 110 | 6.4 | 9.7 | 0.00 | 0.99 | 0.99 | 80 | 1012.3 |
| 20260506222936 | 15 | 187 | 16.1 | 20.9 | 0.00 | 0.99 | 0.99 | 79 | 1012.1 |
| 20260506222432 | 15 | 163 | 12.9 | 14.5 | 0.00 | 0.99 | 0.99 | 79 | 1012.2 |
| 20260506221929 | 15 | 170 | 9.7 | 14.5 | 0.00 | 0.99 | 0.99 | 79 | 1012.2 |
| 20260506221426 | 15 | 151 | 8.0 | 11.3 | 0.00 | 0.99 | 0.99 | 78 | 1012.2 |
| 20260506220924 | 15 | 111 | 8.0 | 11.3 | 0.00 | 0.99 | 0.99 | 78 | 1012.1 |
| 20260506220419 | 15 | 149 | 4.8 | 6.4 | 0.00 | 0.99 | 0.99 | 78 | 1012.1 |
| 20260506215916 | 15 | 150 | 8.0 | 12.9 | 0.00 | 0.99 | 0.99 | 78 | 1011.9 |
| 20260506215412 | 15 | 138 | 9.7 | 16.1 | 0.00 | 0.99 | 0.99 | 77 | 1011.9 |
| 20260506214908 | 15 | 179 | 12.9 | 20.9 | 0.00 | 0.99 | 0.99 | 76 | 1011.9 |
| 20260506214405 | 15 | 180 | 9.7 | 17.7 | 0.00 | 0.99 | 0.99 | 78 | 1012.1 |
| 20260506213903 | 15 | 158 | 8.0 | 14.5 | 0.00 | 0.99 | 0.99 | 80 | 1012.1 |
| 20260506213400 | 15 | 111 | 9.7 | 14.5 | 0.00 | 0.99 | 0.99 | 79 | 1011.9 |
| 20260506212857 | 15 | 212 | 14.5 | 17.7 | 0.00 | 0.99 | 0.99 | 80 | 1012.1 |
| 20260506212353 | 15 | 208 | 12.9 | 16.1 | 0.00 | 0.99 | 0.99 | 80 | 1011.7 |
| 20260506211848 | 15 | 163 | 8.0 | 11.3 | 0.00 | 0.99 | 0.99 | 80 | 1011.9 |
| 20260506211344 | 15 | 197 | 8.0 | 9.7 | 0.00 | 0.99 | 0.99 | 81 | 1011.8 |
| 20260506210842 | 15 | 130 | 9.7 | 12.9 | 0.00 | 0.99 | 0.99 | 81 | 1011.9 |
| 20260506210338 | 15 | 121 | 14.5 | 17.7 | 0.00 | 0.99 | 0.99 | 82 | 1011.7 |
| 20260506205836 | 15 | 135 | 8.0 | 11.3 | 0.00 | 0.99 | 0.99 | 82 | 1011.7 |
| 20260506205331 | 15 | 188 | 8.0 | 17.7 | 0.00 | 0.99 | 0.99 | 82 | 1011.7 |
| 20260506204828 | 15 | 189 | 11.3 | 16.1 | 0.00 | 0.99 | 0.99 | 83 | 1011.8 |
| 20260506204326 | 15 | 185 | 9.7 | 22.5 | 0.00 | 0.99 | 0.99 | 82 | 1011.5 |
| 20260506203823 | 15 | 127 | 11.3 | 17.7 | 0.00 | 0.99 | 0.99 | 82 | 1011.6 |
| 20260506203320 | 15 | 170 | 12.9 | 22.5 | 0.00 | 0.99 | 0.99 | 83 | 1011.7 |
| 20260506202817 | 15 | 197 | 17.7 | 22.5 | 0.00 | 0.99 | 0.99 | 82 | 1011.7 |
| 20260506202314 | 15 | 193 | 17.7 | 20.9 | 0.00 | 0.99 | 0.99 | 82 | 1011.6 |
| 20260506201810 | 15 | 76 | 6.4 | 6.4 | 0.00 | 0.99 | 0.99 | 83 | 1011.7 |
| 20260506201308 | 15 | 151 | 11.3 | 17.7 | 0.00 | 0.99 | 0.99 | 82 | 1011.5 |
| 20260506200805 | 15 | 135 | 14.5 | 25.7 | 0.00 | 0.99 | 0.99 | 82 | 1011.4 |
| 20260506200301 | 15 | 175 | 8.0 | 12.9 | 0.00 | 0.99 | 0.99 | 82 | 1011.3 |
| 20260506195757 | 15 | 160 | 14.5 | 25.7 | 0.00 | 0.99 | 0.99 | 82 | 1011.6 |
| 20260506195254 | 15 | 154 | 9.7 | 16.1 | 0.00 | 0.99 | 0.99 | 83 | 1011.4 |
| 20260506194751 | 15 | 181 | 14.5 | 17.7 | 0.00 | 0.99 | 0.99 | 83 | 1011.1 |
| 20260506194247 | 15 | 71 | 9.7 | 12.9 | 0.00 | 0.99 | 0.99 | 83 | 1011.3 |
| 20260506193746 | 15 | 187 | 9.7 | 12.9 | 0.00 | 0.99 | 0.99 | 84 | 1011.2 |
| 20260506193242 | 15 | 203 | 9.7 | 14.5 | 0.00 | 0.99 | 0.99 | 84 | 1011.1 |
| 20260506192738 | 15 | 171 | 12.9 | 22.5 | 0.00 | 0.99 | 0.99 | 84 | 1011.2 |
| 20260506192235 | 15 | 72 | 16.1 | 24.1 | 0.00 | 0.99 | 0.99 | 85 | 1011.2 |
| 20260506191732 | 15 | 153 | 12.9 | 16.1 | 0.00 | 0.99 | 0.99 | 85 | 1011.1 |
| 20260506191228 | 15 | 162 | 9.7 | 14.5 | 0.00 | 0.99 | 0.99 | 85 | 1011.3 |
| 20260506190726 | 15 | 211 | 8.0 | 11.3 | 0.00 | 0.99 | 0.99 | 86 | 1011.1 |
| 20260506190222 | 15 | 144 | 9.7 | 12.9 | 0.00 | 0.99 | 0.99 | 85 | 1010.9 |
| 20260506185719 | 16 | 199 | 11.3 | 17.7 | 0.00 | 0.99 | 0.99 | 86 | 1010.8 |
| 20260506185215 | 16 | 234 | 11.3 | 16.1 | 0.00 | 0.99 | 0.99 | 85 | 1010.8 |
| 20260506184713 | 16 | 170 | 17.7 | 27.4 | 0.00 | 0.99 | 0.99 | 85 | 1010.7 |
| 20260506184210 | 15 | 104 | 9.7 | 12.9 | 0.00 | 0.99 | 0.99 | 86 | 1010.6 |
| 20260506183707 | 15 | 206 | 9.7 | 12.9 | 0.00 | 0.99 | 0.99 | 87 | 1010.8 |
| 20260506183203 | 15 | 107 | 17.7 | 25.7 | 0.00 | 0.99 | 0.99 | 87 | 1010.9 |
| 20260506182700 | 15 | 109 | 11.3 | 16.1 | 0.00 | 0.99 | 0.99 | 87 | 1010.8 |
| 20260506182157 | 15 | 180 | 14.5 | 16.1 | 0.00 | 0.99 | 0.99 | 87 | 1010.6 |
| 20260506181655 | 15 | 175 | 11.3 | 27.4 | 0.00 | 0.99 | 0.99 | 87 | 1010.5 |
| 20260506181152 | 15 | 158 | 11.3 | 17.7 | 0.00 | 0.99 | 0.99 | 88 | 1010.5 |
| 20260506180649 | 15 | 210 | 14.5 | 14.5 | 0.00 | 0.99 | 0.99 | 88 | 1010.4 |
| 20260506180145 | 15 | 153 | 9.7 | 14.5 | 0.00 | 0.99 | 0.99 | 89 | 1010.5 |
| 20260506175642 | 16 | 134 | 6.4 | 14.5 | 0.00 | 0.99 | 0.99 | 89 | 1010.4 |
| 20260506175139 | 15 | 115 | 8.0 | 12.9 | 0.00 | 0.99 | 0.99 | 89 | 1010.4 |
| 20260506174637 | 15 | 175 | 12.9 | 22.5 | 0.00 | 0.99 | 0.99 | 89 | 1010.6 |
| 20260506174134 | 15 | 158 | 14.5 | 17.7 | 0.00 | 0.99 | 0.99 | 89 | 1010.3 |
| 20260506173631 | 16 | 105 | 11.3 | 17.7 | 0.00 | 0.99 | 0.99 | 89 | 1010.6 |
| 20260506173128 | 16 | 148 | 9.7 | 14.5 | 0.00 | 0.99 | 0.99 | 89 | 1010.5 |
| 20260506172625 | 16 | 127 | 12.9 | 16.1 | 0.00 | 0.99 | 0.99 | 90 | 1010.8 |
| 20260506172121 | 15 | 157 | 11.3 | 17.7 | 0.00 | 0.99 | 0.99 | 90 | 1010.9 |
| 20260506171619 | 15 | 146 | 8.0 | 11.3 | 0.00 | 0.99 | 0.99 | 91 | 1010.8 |
| 20260506171117 | 15 | 118 | 14.5 | 25.7 | 0.00 | 0.99 | 0.99 | 91 | 1010.8 |
| 20260506170615 | 15 | 255 | 9.7 | 12.9 | 0.00 | 0.99 | 0.99 | 91 | 1010.6 |
| 20260506170111 | 15 | 156 | 8.0 | 14.5 | 0.00 | 0.99 | 0.99 | 91 | 1010.6 |
| 20260506165609 | 15 | 232 | 12.9 | 17.7 | 0.00 | 0.99 | 0.99 | 92 | 1010.7 |
| 20260506165105 | 15 | 179 | 8.0 | 12.9 | 0.00 | 0.99 | 0.99 | 92 | 1010.8 |
| 20260506164603 | 15 | 154 | 8.0 | 9.7 | 0.00 | 0.99 | 0.99 | 92 | 1010.6 |
| 20260506164100 | 15 | 235 | 6.4 | 6.4 | 0.00 | 0.99 | 0.99 | 91 | 1010.9 |
| 20260506163555 | 15 | 151 | 3.2 | 4.8 | 0.00 | 0.99 | 0.99 | 91 | 1011.1 |
| 20260506163051 | 15 | 221 | 8.0 | 11.3 | 0.00 | 0.99 | 0.99 | 91 | 1010.9 |
| 20260506162548 | 15 | 167 | 8.0 | 12.9 | 0.00 | 0.99 | 0.99 | 91 | 1010.7 |
| 20260506162045 | 16 | 94 | 9.7 | 20.9 | 0.00 | 0.99 | 0.99 | 92 | 1010.9 |
| 20260506161543 | 16 | 240 | 6.4 | 6.4 | 0.00 | 0.99 | 0.99 | 91 | 1010.8 |
| 20260506161039 | 16 | 144 | 3.2 | 6.4 | 0.00 | 0.99 | 0.99 | 91 | 1010.9 |
| 20260506160537 | 16 | 164 | 9.7 | 12.9 | 0.00 | 0.99 | 0.99 | 91 | 1011.1 |
| 20260506160034 | 16 | 178 | 12.9 | 17.7 | 0.00 | 0.99 | 0.99 | 90 | 1010.9 |
| 20260506155532 | 16 | 206 | 8.0 | 9.7 | 0.00 | 0.99 | 0.99 | 90 | 1011.0 |
| 20260506153703 | 16 | 182 | 6.4 | 9.7 | 0.00 | 0.99 | 0.99 | 90 | 1011.1 |
| 20260506153201 | 16 | 137 | 9.7 | 14.5 | 0.00 | 0.99 | 0.99 | 90 | 1011.0 |
| 20260506152657 | 16 | 218 | 4.8 | 6.4 | 0.00 | 0.99 | 0.99 | 90 | 1011.2 |
| 20260506152155 | 16 | 141 | 8.0 | 12.9 | 0.00 | 0.99 | 0.99 | 91 | 1011.3 |
| 20260506151654 | 16 | 176 | 9.7 | 14.5 | 0.00 | 0.99 | 0.99 | 91 | 1011.4 |
| 20260506151150 | 16 | 107 | 6.4 | 9.7 | 0.00 | 0.99 | 0.99 | 90 | 1011.2 |
| 20260506150647 | 16 | 142 | 6.4 | 9.7 | 0.00 | 0.99 | 0.99 | 90 | 1011.3 |
| 20260506150144 | 16 | 190 | 12.9 | 16.1 | 0.00 | 0.99 | 0.99 | 90 | 1011.3 |
| 20260506145640 | 16 | 198 | 11.3 | 16.1 | 0.00 | 0.99 | 0.99 | 91 | 1011.3 |
| 20260506145137 | 16 | 132 | 9.7 | 17.7 | 0.00 | 0.99 | 0.99 | 91 | 1011.3 |
| 20260506144635 | 16 | 228 | 22.5 | 27.4 | 0.00 | 0.99 | 0.99 | 91 | 1011.2 |
| 20260506144131 | 16 | 30 | 9.7 | 14.5 | 0.00 | 0.99 | 0.99 | 92 | 1011.4 |
| 20260506143629 | 15 | 180 | 12.9 | 17.7 | 0.00 | 0.99 | 0.99 | 93 | 1011.2 |
| 20260506143127 | 15 | 149 | 4.8 | 6.4 | 0.00 | 0.99 | 0.99 | 94 | 1011.4 |
| 20260506142625 | 15 | 95 | 6.4 | 14.5 | 0.00 | 0.99 | 0.99 | 94 | 1011.4 |
| 20260506142123 | 15 | 133 | 9.7 | 11.3 | 0.00 | 0.99 | 0.99 | 94 | 1011.4 |
| 20260506141620 | 15 | 118 | 6.4 | 11.3 | 0.00 | 0.99 | 0.99 | 95 | 1011.6 |
| 20260506141119 | 15 | 158 | 12.9 | 20.9 | 0.00 | 0.99 | 0.99 | 95 | 1011.5 |
| 20260506140616 | 15 | 127 | 9.7 | 14.5 | 0.00 | 0.99 | 0.99 | 96 | 1011.8 |
| 20260506140113 | 15 | 164 | 12.9 | 16.1 | 0.00 | 0.99 | 0.99 | 96 | 1011.6 |
| 20260506135610 | 15 | 153 | 6.4 | 9.7 | 0.00 | 0.99 | 0.99 | 96 | 1011.6 |
| 20260506135106 | 15 | 238 | 4.8 | 11.3 | 0.00 | 0.99 | 0.99 | 96 | 1011.8 |
| 20260506134602 | 15 | 131 | 4.8 | 9.7 | 0.00 | 0.99 | 0.99 | 96 | 1011.6 |
| 20260506134058 | 15 | 217 | 6.4 | 9.7 | 0.00 | 0.99 | 0.99 | 96 | 1011.7 |
| 20260506133555 | 15 | 105 | 8.0 | 11.3 | 0.00 | 0.99 | 0.99 | 96 | 1011.8 |
| 20260506133053 | 15 | 189 | 6.4 | 9.7 | 0.00 | 0.99 | 0.99 | 97 | 1011.8 |
| 20260506132550 | 15 | 140 | 8.0 | 9.7 | 0.00 | 0.99 | 0.99 | 97 | 1012.1 |
| 20260506132047 | 15 | 150 | 8.0 | 11.3 | 0.00 | 0.99 | 0.99 | 96 | 1012.2 |
| 20260506131544 | 15 | 188 | 8.0 | 11.3 | 0.00 | 0.99 | 0.99 | 97 | 1012.2 |
| 20260506131040 | 15 | 167 | 6.4 | 11.3 | 0.00 | 0.99 | 0.99 | 97 | 1012.4 |
| 20260506130537 | 15 | 177 | 8.0 | 9.7 | 0.00 | 0.99 | 0.99 | 97 | 1012.1 |
| 20260506130035 | 15 | 231 | 9.7 | 11.3 | 0.00 | 0.99 | 0.99 | 97 | 1012.1 |
| 20260506125533 | 15 | 135 | 3.2 | 4.8 | 0.00 | 0.99 | 0.99 | 97 | 1012.2 |
| 20260506125031 | 15 | 182 | 3.2 | 3.2 | 0.00 | 0.99 | 0.99 | 97 | 1012.2 |
| 20260506124528 | 15 | 178 | 4.8 | 11.3 | 0.00 | 0.99 | 0.99 | 97 | 1012.1 |
| 20260506124026 | 15 | 159 | 11.3 | 16.1 | 0.00 | 0.99 | 0.99 | 97 | 1012.5 |
| 20260506123523 | 15 | 244 | 3.2 | 3.2 | 0.00 | 0.99 | 0.99 | 97 | 1012.1 |
| 20260506123021 | 15 | 130 | 3.2 | 4.8 | 0.00 | 0.99 | 0.99 | 97 | 1012.3 |
| 20260506122518 | 15 | 186 | 4.8 | 6.4 | 0.00 | 0.99 | 0.99 | 97 | 1012.2 |
| 20260506122016 | 15 | 165 | 3.2 | 9.7 | 0.00 | 0.99 | 0.99 | 96 | 1012.1 |
| 20260506121513 | 15 | 247 | 3.2 | 4.8 | 0.00 | 0.99 | 0.99 | 96 | 1012.2 |
| 20260506121009 | 15 | 214 | 6.4 | 12.9 | 0.00 | 0.99 | 0.99 | 96 | 1012.2 |
| 20260506120508 | 15 | 236 | 4.8 | 4.8 | 0.00 | 0.99 | 0.99 | 96 | 1012.3 |
| 20260506120005 | 14 | 151 | 4.8 | 4.8 | 0.00 | 0.99 | 0.99 | 97 | 1012.2 |
| 20260506115502 | 14 | 255 | 0.0 | 0.0 | 0.00 | 0.99 | 0.99 | 96 | 1012.4 |
| 20260506115000 | 14 | 258 | 0.0 | 0.0 | 0.00 | 0.99 | 0.99 | 96 | 1012.4 |
| 20260506114457 | 14 | 148 | 4.8 | 6.4 | 0.00 | 0.99 | 0.99 | 96 | 1012.2 |
| 20260506113956 | 14 | 177 | 1.6 | 1.6 | 0.00 | 0.99 | 0.99 | 96 | 1012.4 |
| 20260506113453 | 14 | 163 | 3.2 | 4.8 | 0.00 | 0.99 | 0.99 | 96 | 1012.3 |
| 20260506112950 | 13 | 204 | 4.8 | 4.8 | 0.00 | 0.99 | 0.99 | 96 | 1012.3 |
| 20260506112447 | 13 | 238 | 3.2 | 4.8 | 0.00 | 0.99 | 0.99 | 96 | 1012.4 |
| 20260506111944 | 13 | 200 | 0.0 | 1.6 | 0.00 | 0.99 | 0.99 | 96 | 1012.4 |
| 20260506111443 | 13 | 259 | 0.0 | 0.0 | 0.00 | 0.99 | 0.99 | 96 | 1012.7 |
| 20260506110939 | 13 | 259 | 0.0 | 0.0 | 0.00 | 0.99 | 0.99 | 96 | 1012.6 |
| 20260506110437 | 13 | 251 | 0.0 | 0.0 | 0.00 | 0.99 | 0.99 | 96 | 1012.7 |
| 20260506105933 | 13 | 258 | 0.0 | 0.0 | 0.00 | 0.99 | 0.99 | 96 | 1012.7 |
| 20260506105430 | 13 | 146 | 0.0 | 0.0 | 0.00 | 0.99 | 0.99 | 96 | 1012.8 |
| 20260506104927 | 13 | 114 | 1.6 | 3.2 | 0.00 | 0.99 | 0.99 | 95 | 1012.6 |
| 20260506104425 | 13 | 78 | 1.6 | 3.2 | 0.00 | 0.99 | 0.99 | 95 | 1012.7 |
| 20260506103923 | 13 | 241 | 0.0 | 0.0 | 0.00 | 0.99 | 0.99 | 95 | 1012.7 |
| 20260506103420 | 13 | 133 | 0.0 | 1.6 | 0.00 | 0.99 | 0.99 | 95 | 1012.9 |
| 20260506102917 | 13 | 151 | 4.8 | 4.8 | 0.00 | 0.99 | 0.99 | 95 | 1012.9 |
| 20260506102415 | 13 | 110 | 4.8 | 6.4 | 0.00 | 0.99 | 0.99 | 95 | 1012.7 |
| 20260506101912 | 13 | 101 | 4.8 | 9.7 | 0.00 | 0.99 | 0.99 | 95 | 1012.9 |
| 20260506101408 | 13 | 130 | 4.8 | 6.4 | 0.00 | 0.99 | 0.99 | 95 | 1013.0 |
| 20260506100906 | 13 | 130 | 3.2 | 4.8 | 0.00 | 0.99 | 0.99 | 95 | 1012.9 |
| 20260506100404 | 13 | 174 | 8.0 | 12.9 | 0.13 | 0.99 | 0.99 | 95 | 1013.0 |
| 20260506095902 | 13 | 168 | 8.0 | 9.7 | 0.13 | 0.99 | 0.99 | 95 | 1012.9 |
| 20260506095400 | 13 | 112 | 4.8 | 6.4 | 0.00 | 0.97 | 0.97 | 95 | 1012.9 |
| 20260506094856 | 13 | 203 | 1.6 | 3.2 | 0.00 | 0.97 | 0.97 | 95 | 1012.8 |
| 20260506094355 | 12 | 125 | 4.8 | 9.7 | 0.00 | 0.97 | 0.97 | 96 | 1012.9 |
| 20260506093852 | 12 | 139 | 6.4 | 6.4 | 0.18 | 0.97 | 0.97 | 95 | 1012.8 |
| 20260506093350 | 12 | 109 | 1.6 | 3.2 | 0.18 | 0.97 | 0.97 | 95 | 1012.9 |
| 20260506092847 | 12 | 199 | 3.2 | 3.2 | 0.13 | 0.94 | 0.94 | 95 | 1013.0 |
| 20260506092345 | 12 | 109 | 4.8 | 6.4 | 0.13 | 0.94 | 0.94 | 95 | 1013.1 |
| 20260506091841 | 12 | 167 | 3.2 | 4.8 | 0.18 | 0.91 | 0.91 | 95 | 1013.1 |
| 20260506091339 | 12 | 120 | 3.2 | 6.4 | 0.48 | 0.91 | 0.91 | 95 | 1012.9 |
| 20260506090836 | 12 | 112 | 3.2 | 3.2 | 0.30 | 0.89 | 0.89 | 95 | 1013.2 |
| 20260506090334 | 13 | 110 | 6.4 | 6.4 | 0.30 | 0.84 | 0.84 | 95 | 1013.0 |
| 20260506085830 | 13 | 113 | 4.8 | 6.4 | 0.48 | 0.84 | 0.84 | 95 | 1013.0 |
| 20260506085326 | 13 | 114 | 6.4 | 6.4 | 0.48 | 0.81 | 0.81 | 95 | 1013.1 |
| 20260506084823 | 12 | 178 | 6.4 | 9.7 | 0.13 | 0.76 | 0.76 | 95 | 1013.3 |
| 20260506084320 | 12 | 155 | 4.8 | 9.7 | 0.30 | 0.74 | 0.74 | 94 | 1013.0 |
| 20260506083817 | 12 | 148 | 4.8 | 6.4 | 0.30 | 0.74 | 0.74 | 94 | 1013.1 |
| 20260506083314 | 12 | 181 | 4.8 | 6.4 | 0.18 | 0.69 | 0.69 | 94 | 1013.1 |
| 20260506082812 | 12 | 169 | 4.8 | 9.7 | 0.30 | 0.69 | 0.69 | 94 | 1012.9 |
| 20260506082308 | 12 | 148 | 8.0 | 11.3 | 0.43 | 0.66 | 0.66 | 94 | 1013.0 |
| 20260506081805 | 12 | 161 | 6.4 | 9.7 | 0.48 | 0.64 | 0.64 | 93 | 1013.0 |
| 20260506081302 | 12 | 116 | 8.0 | 12.9 | 0.61 | 0.58 | 0.58 | 94 | 1013.0 |
| 20260506080800 | 12 | 220 | 1.6 | 3.2 | 0.61 | 0.56 | 0.56 | 93 | 1013.0 |
| 20260506080256 | 12 | 182 | 1.6 | 3.2 | 0.48 | 0.48 | 0.48 | 93 | 1013.3 |
| 20260506073240 | 13 | 286 | 1.6 | 3.2 | 0.61 | 0.30 | 0.30 | 92 | 1013.3 |
| 20260506072737 | 13 | 138 | 0.0 | 1.6 | 0.00 | 0.20 | 0.20 | 92 | 1013.1 |
| 20260506072234 | 13 | 156 | 1.6 | 3.2 | 0.00 | 0.20 | 0.20 | 91 | 1012.7 |
| 20260506071732 | 13 | 149 | 8.0 | 11.3 | 0.00 | 0.20 | 0.20 | 90 | 1012.7 |
| 20260506071230 | 13 | 198 | 1.6 | 3.2 | 0.00 | 0.20 | 0.20 | 90 | 1012.7 |
| 20260506070727 | 13 | 135 | 3.2 | 3.2 | 0.00 | 0.20 | 0.20 | 90 | 1012.5 |
| 20260506070223 | 13 | 170 | 3.2 | 4.8 | 0.18 | 0.20 | 0.20 | 90 | 1013.0 |
| 20260506062200 | 14 | 114 | 6.4 | 12.9 | 0.00 | 0.00 | 0.00 | 82 | 1012.8 |
| 20260506061656 | 14 | 169 | 3.2 | 3.2 | 0.00 | 0.00 | 0.00 | 84 | 1012.7 |
| 20260506061154 | 14 | 127 | 3.2 | 4.8 | 0.00 | 0.00 | 0.00 | 84 | 1012.5 |
| 20260506060652 | 14 | 175 | 3.2 | 4.8 | 0.00 | 0.00 | 0.00 | 85 | 1012.3 |
| 20260506060149 | 15 | 127 | 4.8 | 9.7 | 0.00 | 0.00 | 0.00 | 84 | 1012.5 |
| 20260506051121 | 15 | 194 | 6.4 | 9.7 | 0.00 | 0.00 | 0.00 | 80 | 1012.4 |
| 20260506050619 | 15 | 166 | 6.4 | 9.7 | 0.00 | 0.00 | 0.00 | 80 | 1012.5 |
| 20260506050116 | 15 | 173 | 3.2 | 3.2 | 0.00 | 0.00 | 0.00 | 82 | 1012.3 |
| 20260506045109 | 14 | 203 | 4.8 | 9.7 | 0.00 | 0.00 | 0.00 | 83 | 1012.2 |
| 20260506044607 | 14 | 190 | 3.2 | 4.8 | 0.00 | 0.00 | 0.00 | 84 | 1012.2 |
| 20260506044104 | 14 | 179 | 6.4 | 9.7 | 0.00 | 0.00 | 0.00 | 85 | 1012.2 |
| 20260506043601 | 14 | 153 | 4.8 | 6.4 | 0.00 | 0.00 | 0.00 | 85 | 1012.4 |
| 20260506043059 | 14 | 133 | 3.2 | 6.4 | 0.00 | 0.00 | 0.00 | 85 | 1012.4 |
| 20260506042558 | 14 | 63 | 4.8 | 6.4 | 0.00 | 0.00 | 0.00 | 86 | 1012.3 |
| 20260506042055 | 14 | 171 | 4.8 | 6.4 | 0.00 | 0.00 | 0.00 | 86 | 1012.3 |
| 20260506041554 | 14 | 178 | 6.4 | 9.7 | 0.00 | 0.00 | 0.00 | 86 | 1012.1 |
| 20260506041050 | 14 | 154 | 4.8 | 9.7 | 0.00 | 0.00 | 0.00 | 86 | 1012.2 |
| 20260506040548 | 14 | 113 | 6.4 | 6.4 | 0.00 | 0.00 | 0.00 | 86 | 1012.1 |
| 20260506040044 | 14 | 201 | 6.4 | 9.7 | 0.00 | 0.00 | 0.00 | 86 | 1012.1 |
| 20260506035541 | 15 | 158 | 9.7 | 12.9 | 0.00 | 0.00 | 0.00 | 86 | 1011.9 |
| 20260506035038 | 14 | 113 | 6.4 | 14.5 | 0.00 | 0.00 | 0.00 | 87 | 1012.1 |
| 20260506034535 | 14 | 123 | 6.4 | 9.7 | 0.00 | 0.00 | 0.00 | 87 | 1012.3 |
| 20260506034032 | 15 | 134 | 4.8 | 9.7 | 0.00 | 0.00 | 0.00 | 88 | 1012.4 |
| 20260506033530 | 14 | 190 | 6.4 | 9.7 | 0.00 | 0.00 | 0.00 | 88 | 1012.2 |
| 20260506033026 | 14 | 135 | 9.7 | 11.3 | 0.00 | 0.00 | 0.00 | 88 | 1012.3 |
| 20260506032524 | 14 | 141 | 4.8 | 9.7 | 0.00 | 0.00 | 0.00 | 88 | 1012.2 |
| 20260506032020 | 15 | 169 | 4.8 | 4.8 | 0.00 | 0.00 | 0.00 | 89 | 1012.3 |
| 20260506031518 | 15 | 154 | 9.7 | 11.3 | 0.00 | 0.00 | 0.00 | 88 | 1012.3 |
| 20260506031015 | 15 | 146 | 9.7 | 11.3 | 0.00 | 0.00 | 0.00 | 88 | 1012.4 |
| 20260506030513 | 15 | 142 | 8.0 | 11.3 | 0.00 | 0.00 | 0.00 | 88 | 1012.4 |
| 20260506030010 | 15 | 171 | 1.6 | 1.6 | 0.00 | 0.00 | 0.00 | 88 | 1012.4 |
| 20260506025507 | 15 | 176 | 3.2 | 3.2 | 0.00 | 0.00 | 0.00 | 88 | 1012.6 |
| 20260506025003 | 15 | 151 | 3.2 | 4.8 | 0.00 | 0.00 | 0.00 | 88 | 1012.6 |
| 20260506024500 | 15 | 151 | 4.8 | 4.8 | 0.00 | 0.00 | 0.00 | 88 | 1012.7 |
| 20260506023955 | 15 | 140 | 4.8 | 4.8 | 0.00 | 0.00 | 0.00 | 88 | 1012.8 |
| 20260506023453 | 15 | 169 | 3.2 | 4.8 | 0.00 | 0.00 | 0.00 | 88 | 1012.9 |
| 20260506022949 | 15 | 225 | 3.2 | 3.2 | 0.00 | 0.00 | 0.00 | 87 | 1012.9 |
| 20260506022447 | 15 | 159 | 9.7 | 12.9 | 0.00 | 0.00 | 0.00 | 87 | 1012.8 |
| 20260506021945 | 15 | 241 | 4.8 | 4.8 | 0.00 | 0.00 | 0.00 | 87 | 1013.0 |
| 20260506021442 | 15 | 203 | 4.8 | 6.4 | 0.00 | 0.00 | 0.00 | 86 | 1013.0 |
| 20260506020939 | 15 | 281 | 3.2 | 6.4 | 0.00 | 0.00 | 0.00 | 86 | 1013.0 |
| 20260506020437 | 15 | 204 | 6.4 | 9.7 | 0.00 | 0.00 | 0.00 | 86 | 1012.8 |
| 20260506015934 | 15 | 119 | 4.8 | 6.4 | 0.00 | 0.00 | 0.00 | 86 | 1012.8 |
| 20260506015431 | 15 | 149 | 6.4 | 11.3 | 0.00 | 0.00 | 0.00 | 86 | 1013.0 |
| 20260506014928 | 15 | 163 | 3.2 | 4.8 | 0.00 | 0.00 | 0.00 | 87 | 1012.8 |
| 20260506014425 | 15 | 141 | 6.4 | 9.7 | 0.00 | 0.00 | 0.00 | 87 | 1013.1 |
| 20260506013921 | 15 | 132 | 1.6 | 4.8 | 0.00 | 0.00 | 0.00 | 86 | 1012.9 |
| 20260506013420 | 15 | 117 | 4.8 | 6.4 | 0.00 | 0.00 | 0.00 | 86 | 1013.1 |
| 20260506012915 | 15 | 232 | 3.2 | 3.2 | 0.00 | 0.00 | 0.00 | 86 | 1012.7 |
| 20260506012412 | 15 | 121 | 3.2 | 4.8 | 0.00 | 0.00 | 0.00 | 86 | 1013.1 |
| 20260506011909 | 15 | 162 | 8.0 | 12.9 | 0.00 | 0.00 | 0.00 | 86 | 1012.8 |
| 20260506011406 | 15 | 179 | 6.4 | 9.7 | 0.00 | 0.00 | 0.00 | 86 | 1012.9 |
| 20260506010903 | 15 | 182 | 4.8 | 6.4 | 0.00 | 0.00 | 0.00 | 86 | 1012.8 |
| 20260506010402 | 15 | 240 | 1.6 | 3.2 | 0.00 | 0.00 | 0.00 | 86 | 1012.8 |
| 20260506005858 | 15 | 172 | 4.8 | 6.4 | 0.00 | 0.00 | 0.00 | 85 | 1012.8 |
| 20260506005355 | 15 | 230 | 4.8 | 6.4 | 0.00 | 0.00 | 0.00 | 85 | 1012.9 |
| 20260506004850 | 15 | 138 | 6.4 | 9.7 | 0.00 | 0.00 | 0.00 | 85 | 1012.8 |